Location: Dodgeville
(42.9600°N, 90.1300°W)
Time: 16:13:19
(UTC-06:00)

Amateur Radio Satellites - All Passes

Search period start: 02 December 2016 15:43
Search period end: 03 December 2016 15:43
Location: Dodgeville, 42.9600°N, 90.1300°W

Satellite Date Start Highest point End Downlink Frequencies (MHz)
Time Altitude Azimuth
ITUPSAT 1 02 Dec 15:44:58 15:49:05 30° 293° (WNW) 15:53:10 437.325
AO-7 02 Dec 15:53:39 16:00:59 34° 263° (W) 16:08:23 29.400- 29.500
CUTE-I 02 Dec 15:55:04 15:57:54 15° 58° (ENE) 16:00:43 437.470
AUBIESAT-1 02 Dec 15:57:15 16:00:54 23° 300° (WNW) 16:04:29 437.475
BEESAT 2 02 Dec 15:58:22 16:01:58 32° 244° (WSW) 16:05:34 435.950
GOMX 1 02 Dec 16:03:56 16:07:25 22° 64° (ENE) 16:11:07 467.674
M-CUBED/EXP-1 PRIME 02 Dec 16:06:25 16:09:28 17° 303° (WNW) 16:12:29 437.505
BRITE-PL 02 Dec 16:06:32 16:10:38 52° 73° (ENE) 16:15:00 437.365/2234.400
RS-15 02 Dec 16:11:01 16:23:21 63° 48° (NE) 16:35:18 29.354- 29.394
AIST 2 02 Dec 16:12:25 16:14:55 15° 39° (NE) 16:17:23 435.215
Cubesat XI-IV 02 Dec 16:18:08 16:22:13 23° 62° (ENE) 16:26:19 437.490
KKS-1 02 Dec 16:24:35 16:29:07 88° 105° (ESE) 16:33:35 437.445
LilacSat-2 02 Dec 16:26:31 16:29:15 19° 67° (ENE) 16:31:58 437.200
NOAA 15 02 Dec 16:29:09 16:33:40 30° 66° (ENE) 16:38:12 137.62
DOVE 4 02 Dec 16:34:58 16:38:30 21° 63° (ENE) 16:42:11 437.250
HORYU 2 02 Dec 16:37:56 16:42:26 79° 256° (WSW) 16:46:57 437.375
STARS 02 Dec 16:41:55 16:46:21 63° 102° (ESE) 16:50:43 437.465
HO-68 02 Dec 16:50:08 16:53:43 15° 50° (NE) 16:57:17 435.675
CUBESAT XI-V 02 Dec 16:53:20 16:57:57 60° 101° (E) 17:02:33 437.345
MOZHAYETS 4 02 Dec 17:02:53 17:05:59 18° 296° (WNW) 17:09:05
O/OREOS (USA 219) 02 Dec 17:05:10 17:09:43 64° 295° (WNW) 17:14:15 437.305
NOAA 18 02 Dec 17:07:20 17:12:28 41° 67° (ENE) 17:17:39 137.9125
Cosmos 2491 02 Dec 17:07:55 17:15:23 30° 67° (ENE) 17:22:47 435.465 / 435.565
CUTE-I 02 Dec 17:31:49 17:37:12 86° 257° (WSW) 17:42:37 437.470
ISS 02 Dec 17:33:55 17:37:06 49° 141° (SE) 17:40:19 145.825
GOMX 1 02 Dec 17:41:05 17:45:14 39° 264° (W) 17:49:43 467.674
YUBILEINY 02 Dec 17:41:19 17:46:30 18° 76° (ENE) 17:51:40 435.215
BRITE-PL 02 Dec 17:47:23 17:49:35 14° 271° (W) 17:51:51 437.365/2234.400
AIST 2 02 Dec 17:49:42 17:53:57 84° 237° (WSW) 17:58:10 435.215
Cubesat XI-IV 02 Dec 17:56:41 18:01:55 53° 260° (W) 18:07:12 437.490
LilacSat-2 02 Dec 17:59:47 18:03:18 33° 263° (W) 18:06:50 437.200
CUTE 1.7 + AOD 2 02 Dec 18:02:11 18:05:25 22° 67° (ENE) 18:08:39 437.475
KKS-1 02 Dec 18:03:53 18:04:57 11° 301° (WNW) 18:06:02 437.445
NOAA 15 02 Dec 18:08:33 18:13:20 36° 263° (W) 18:18:10 137.62
DOVE 4 02 Dec 18:11:18 18:15:48 47° 262° (W) 18:20:36 437.250
CANX-2 02 Dec 18:18:34 18:22:28 37° 71° (ENE) 18:26:21 2200.000
STARS 02 Dec 18:19:49 18:22:09 14° 299° (WNW) 18:24:30 437.465
CINEMA 3 02 Dec 18:21:01 18:25:49 60° 73° (ENE) 18:30:45 145.822/145.860
UWE-3 02 Dec 18:23:38 18:25:27 12° 61° (ENE) 18:27:15 435.000/436.395/437.385
RS-15 02 Dec 18:24:10 18:35:27 45° 252° (WSW) 18:46:24 29.354- 29.394
CUBESAT XI-V 02 Dec 18:32:04 18:34:50 16° 297° (WNW) 18:37:37 437.345
HO-68 02 Dec 18:33:03 18:40:08 68° 69° (ENE) 18:47:15 435.675
AAUSAT CUBESAT 2 02 Dec 18:44:59 18:48:11 22° 67° (ENE) 18:51:22 437.432
NOAA 18 02 Dec 18:48:29 18:53:13 29° 265° (W) 18:58:00 137.9125
SEEDS 02 Dec 18:52:09 18:56:11 50° 73° (ENE) 19:00:14 437.485
STRAND 1 02 Dec 18:54:48 18:59:34 38° 98° (E) 19:04:17 437.568
Cosmos 2491 02 Dec 19:04:15 19:12:48 62° 268° (W) 19:21:19 435.465 / 435.565
AIST 1 02 Dec 19:05:32 19:08:03 15° 85° (E) 19:10:35
CUBEBUG 2 02 Dec 19:05:53 19:10:25 46° 72° (ENE) 19:14:58 437.445
COMPASS 1 02 Dec 19:10:10 19:14:11 53° 74° (ENE) 19:18:13 437.405
ISS 02 Dec 19:10:46 19:13:44 30° 339° (NNW) 19:16:43 145.825
ZACube-1 02 Dec 19:11:46 19:15:17 22° 66° (ENE) 19:18:46 437.345
CUTE-I 02 Dec 19:16:46 19:18:00 11° 273° (W) 19:19:14 437.470
Cosmos 2504 02 Dec 19:18:35 19:25:55 37° 84° (E) 19:33:37 435.465 / 435.565
FUNcube-1 02 Dec 19:21:32 19:25:16 25° 67° (ENE) 19:28:58 145.935
YUBILEINY 02 Dec 19:33:12 19:41:54 86° 96° (E) 19:50:42 435.215
CUTE 1.7 + AOD 2 02 Dec 19:37:13 19:41:04 34° 263° (W) 19:44:56 437.475
PCSat 02 Dec 19:49:21 19:53:24 21° 42° (NE) 19:57:27 145.827
CANX-2 02 Dec 19:55:21 19:58:26 19° 267° (W) 20:01:30 2200.000
UWE-3 02 Dec 19:56:32 20:01:14 83° 257° (WSW) 20:05:55 435.000/436.395/437.385
Oscar 11 02 Dec 19:56:43 20:00:56 54° 73° (ENE) 20:05:10 145.826/435.025
CINEMA 3 02 Dec 20:00:18 20:03:21 16° 271° (W) 20:06:26 145.822/145.860
DELFI C3 02 Dec 20:17:18 20:20:45 31° 70° (ENE) 20:24:15 145.870
AAUSAT CUBESAT 2 02 Dec 20:19:49 20:23:28 31° 263° (W) 20:27:10 437.432
HO-68 02 Dec 20:22:52 20:28:24 24° 268° (W) 20:33:58 435.675
SEEDS 02 Dec 20:29:58 20:32:10 14° 269° (W) 20:34:23 437.485
SO-50 02 Dec 20:31:14 20:35:42 41° 117° (ESE) 20:40:08 436.795
STRAND 1 02 Dec 20:34:18 20:38:34 27° 295° (WNW) 20:42:48 437.568
AIST 1 02 Dec 20:41:06 20:45:12 45° 282° (WNW) 20:49:24
CUBEBUG 2 02 Dec 20:43:46 20:47:13 20° 268° (W) 20:50:42 437.445
ZACube-1 02 Dec 20:47:02 20:51:20 39° 263° (W) 20:55:35 437.345
COMPASS 1 02 Dec 20:48:09 20:50:04 13° 270° (W) 20:51:59 437.405
ISS 02 Dec 20:48:37 20:50:59 18° 359° (N) 20:53:21 145.825
CUSAT 1 02 Dec 20:51:25 20:54:43 75° 261° (W) 20:58:59 437.405
FUNcube-1 02 Dec 20:57:13 21:01:21 33° 264° (W) 21:05:27 145.935
DANDE 02 Dec 21:00:29 21:02:37 21° 76° (ENE) 21:04:57 436.750
Cosmos 2491 02 Dec 21:05:59 21:07:42 11° 289° (WNW) 21:09:24 435.465 / 435.565
Cosmos 2504 02 Dec 21:10:59 21:18:58 51° 286° (WNW) 21:27:30 435.465 / 435.565
HUMSAT D 02 Dec 21:12:58 21:17:12 73° 75° (ENE) 21:21:24 437.325/437.525
TIGRISAT 02 Dec 21:23:49 21:27:03 20° 92° (E) 21:30:12 435.000
ANTELSAT 02 Dec 21:24:08 21:27:30 21° 93° (E) 21:30:48 437.575/2403.000
ESTCUBE 1 02 Dec 21:26:15 21:29:06 17° 63° (ENE) 21:31:55 437.505/2401.250
PRISM 02 Dec 21:29:22 21:33:31 74° 286° (WNW) 21:37:40 437.425
PCSat 02 Dec 21:31:58 21:37:24 75° 242° (WSW) 21:42:48 145.827
YUBILEINY 02 Dec 21:33:38 21:39:54 21° 298° (WNW) 21:46:16 435.215
Oscar 11 02 Dec 21:35:07 21:37:24 14° 270° (W) 21:39:40 145.826/435.025
AISAT 02 Dec 21:49:45 21:51:53 13° 61° (ENE) 21:54:02 437.250
DELFI C3 02 Dec 21:52:43 21:55:37 20° 266° (W) 21:58:33 145.870
SO-50 02 Dec 22:12:07 22:16:17 29° 315° (NW) 22:20:24 436.795
CUBEBUG 1 02 Dec 22:23:43 22:27:43 38° 70° (ENE) 22:31:47 437.445
QB50P2 02 Dec 22:23:56 22:24:14 10° 89° (E) 22:24:32 145.880/145.840
VELOX 1 02 Dec 22:25:02 22:28:46 28° 67° (ENE) 22:32:33 145.980
ISS 02 Dec 22:25:19 22:28:15 28° 20° (NNE) 22:31:11 145.825
UNISAT 6 02 Dec 22:28:16 22:32:45 79° 284° (WNW) 22:37:05 437.425
QB50P1 02 Dec 22:37:06 22:39:21 14° 91° (E) 22:41:35 145.935-145.965
DUCHIFAT 1 02 Dec 22:44:13 22:46:30 14° 91° (E) 22:48:47 145.980
DX 1 02 Dec 22:50:55 22:54:39 29° 67° (ENE) 22:58:25 434.975-435.025
50 SAT 02 Dec 22:51:14 22:54:30 37° 72° (ENE) 22:57:47 437.505
POPSAT HIP 1 02 Dec 22:57:18 23:00:42 23° 94° (E) 23:04:03 437.405
TIGRISAT 02 Dec 22:59:45 23:03:54 39° 290° (WNW) 23:07:57 435.000
ANTELSAT 02 Dec 23:00:15 23:04:21 37° 290° (WNW) 23:08:20 437.575/2403.000
ESTCUBE 1 02 Dec 23:01:07 23:05:28 52° 260° (W) 23:09:52 437.505/2401.250
UKube-1 02 Dec 23:05:27 23:09:13 30° 68° (ENE) 23:13:01 .
Cosmos 2504 02 Dec 23:13:30 23:14:55 10° 310° (NW) 23:16:21 435.465 / 435.565
AISAT 02 Dec 23:23:24 23:27:47 68° 258° (WSW) 23:32:13 437.250
SPROUT 02 Dec 23:25:24 23:29:41 78° 75° (ENE) 23:34:01 437.525
TISAT 1 02 Dec 23:27:09 23:29:32 15° 63° (ENE) 23:31:56 437.305
JAS-2 02 Dec 23:36:58 23:42:10 81° 103° (ESE) 23:47:30 435.910
M-CUBED/EXP-1 PRIME 02 Dec 23:47:09 23:47:53 10° 52° (NE) 23:48:39 437.505
NANOSAT C BR1 02 Dec 23:54:04 23:58:21 88° 277° (W) 00:02:33 145.865
BUGSAT 1 02 Dec 23:55:17 23:59:07 33° 97° (E) 00:02:52 437.445
QB50P2 02 Dec 23:56:16 00:00:31 72° 285° (WNW) 00:04:44 145.880/145.840
POLYITAN 1 02 Dec 23:56:54 00:01:10 76° 285° (WNW) 00:05:22 437.675
CUBEBUG 1 03 Dec 00:00:54 00:04:08 20° 267° (W) 00:07:24 437.445
VELOX 1 03 Dec 00:01:20 00:05:09 28° 264° (W) 00:09:00 145.980
ISS 03 Dec 00:01:40 00:04:56 56° 217° (SW) 00:08:10 145.825
GONETS M04 03 Dec 00:10:55 00:18:45 39° 86° (E) 00:26:35
QB50P1 03 Dec 00:11:17 00:15:26 52° 287° (WNW) 00:19:32 145.935-145.965
DUCHIFAT 1 03 Dec 00:18:23 00:22:30 51° 287° (WNW) 00:26:33 145.980
Cosmos 2499 03 Dec 00:21:19 00:29:20 50° 88° (E) 00:37:43 435.465 / 435.565
50 SAT 03 Dec 00:26:18 00:27:59 13° 268° (W) 00:29:40 437.505
DX 1 03 Dec 00:27:06 00:30:47 27° 264° (W) 00:34:31 434.975-435.025
POPSAT HIP 1 03 Dec 00:32:43 00:36:31 32° 291° (WNW) 00:40:16 437.405
UKube-1 03 Dec 00:41:41 00:45:15 25° 265° (W) 00:48:49 .
SWISSCUBE 03 Dec 00:45:35 00:49:26 25° 65° (ENE) 00:53:17 437.505
BEESAT 03 Dec 00:50:03 00:53:53 25° 65° (ENE) 00:57:44 436.000
Oscar 19 03 Dec 01:00:13 01:05:03 38° 98° (E) 01:09:52 437.125/150
TISAT 1 03 Dec 01:00:34 01:04:43 55° 259° (W) 01:08:55 437.305
AUBIESAT-1 03 Dec 01:08:30 01:12:27 56° 67° (ENE) 01:16:43 437.475
ITUPSAT 1 03 Dec 01:14:28 01:18:57 40° 69° (ENE) 01:23:25 437.325
M-CUBED/EXP-1 PRIME 03 Dec 01:17:32 01:21:31 87° 71° (ENE) 01:25:53 437.505
JAS-2 03 Dec 01:24:11 01:26:37 13° 302° (WNW) 01:29:04 435.910
BUGSAT 1 03 Dec 01:31:00 01:34:17 22° 294° (WNW) 01:37:33 437.445
O/OREOS (USA 219) 03 Dec 01:35:23 01:39:22 30° 58° (ENE) 01:43:19 437.305
KKS-1 03 Dec 01:51:03 01:51:44 10° 58° (ENE) 01:52:26 437.445
AO-7 03 Dec 02:02:35 02:07:02 15° 88° (E) 02:11:28 29.400- 29.500
Gurwin Techsat 1B 03 Dec 02:06:24 02:11:46 79° 103° (ESE) 02:17:04 435.225
GONETS M04 03 Dec 02:07:03 02:15:22 48° 286° (WNW) 02:23:44
PHONESAT 2.4 03 Dec 02:12:39 02:14:52 23° 161° (SSE) 02:17:04 2401.200-2431.200
AO-85 03 Dec 02:14:32 02:19:02 35° 116° (ESE) 02:23:16 145.980
Cosmos 2499 03 Dec 02:14:47 02:22:37 40° 289° (WNW) 02:30:50 435.465 / 435.565
SWISSCUBE 03 Dec 02:22:36 02:27:02 38° 262° (W) 02:31:29 437.505
BEESAT 03 Dec 02:27:01 02:31:28 38° 262° (W) 02:35:55 436.000
MOZHAYETS 4 03 Dec 02:27:11 02:31:38 51° 72° (ENE) 02:36:06
Oscar 19 03 Dec 02:39:50 02:44:13 28° 295° (WNW) 02:48:35 437.125/150
AUBIESAT-1 03 Dec 02:45:12 02:47:17 14° 266° (W) 02:49:26 437.475
ITUPSAT 1 03 Dec 02:53:09 02:56:54 23° 266° (W) 03:00:40 437.325
ITAMSAT 1 03 Dec 02:59:43 03:04:51 57° 101° (E) 03:09:55 435.822/435.867
O/OREOS (USA 219) 03 Dec 03:14:53 03:18:41 28° 256° (WSW) 03:22:28 437.305
KKS-1 03 Dec 03:23:05 03:27:33 89° 71° (ENE) 03:32:04 437.445
SO-50 03 Dec 03:24:10 03:24:25 10° 29° (NNE) 03:24:40 436.795
STARS 03 Dec 03:38:59 03:43:21 62° 74° (ENE) 03:47:45 437.465
PHONESAT 2.4 03 Dec 03:47:17 03:49:53 48° 176° (S) 03:52:27 2401.200-2431.200
Gurwin Techsat 1B 03 Dec 03:48:01 03:51:02 15° 301° (WNW) 03:54:02 435.225
AO-7 03 Dec 03:52:39 04:01:05 77° 107° (ESE) 04:09:28 29.400- 29.500
AO-85 03 Dec 03:55:08 03:59:29 32° 312° (NW) 04:03:34 145.980
CUBESAT XI-V 03 Dec 03:57:14 04:01:45 64° 74° (ENE) 04:06:19 437.345
MOZHAYETS 4 03 Dec 04:06:11 04:09:06 16° 269° (W) 04:12:00
BRITE-PL 03 Dec 04:09:53 04:13:48 20° 92° (E) 04:17:48 437.365/2234.400
HORYU 2 03 Dec 04:28:55 04:31:58 18° 93° (E) 04:35:00 437.375
ITAMSAT 1 03 Dec 04:40:12 04:43:52 20° 299° (WNW) 04:47:32 435.822/435.867
SO-50 03 Dec 05:01:39 05:06:03 46° 50° (NE) 05:10:21 436.795
Cosmos 2504 03 Dec 05:11:01 05:15:45 15° 56° (NE) 05:20:23 435.465 / 435.565
STARS 03 Dec 05:18:04 05:20:06 13° 270° (W) 05:22:09 437.465
PHONESAT 2.4 03 Dec 05:22:29 05:24:56 32° 193° (SSW) 05:27:23 2401.200-2431.200
BEESAT 3 03 Dec 05:28:30 05:32:09 41° 117° (ESE) 05:35:53 437.485
NOAA 18 03 Dec 05:29:42 05:32:53 15° 90° (E) 05:36:03 137.9125
LilacSat-2 03 Dec 05:32:19 05:35:20 22° 94° (E) 05:38:21 437.200
CUBESAT XI-V 03 Dec 05:37:25 05:39:35 13° 271° (W) 05:41:45 437.345
GOMX 1 03 Dec 05:40:43 05:46:06 60° 100° (E) 05:51:31 467.674
YUBILEINY 03 Dec 05:42:22 05:50:47 46° 73° (ENE) 05:59:09 435.215
AO-7 03 Dec 05:46:24 05:53:03 27° 307° (NW) 05:59:42 29.400- 29.500
BRITE-PL 03 Dec 05:47:19 05:52:31 58° 287° (WNW) 05:57:59 437.365/2234.400
CUTE-I 03 Dec 05:48:16 05:53:08 35° 97° (E) 05:57:58 437.470
BEESAT 2 03 Dec 05:50:24 05:53:55 32° 116° (ESE) 05:57:30 435.950
HO-68 03 Dec 06:04:29 06:05:21 10° 85° (E) 06:06:13 435.675
HORYU 2 03 Dec 06:04:30 06:08:44 44° 289° (WNW) 06:12:55 437.375
DOVE 4 03 Dec 06:08:48 06:13:58 48° 98° (E) 06:19:00 437.250
Cosmos 2491 03 Dec 06:10:46 06:18:17 33° 84° (E) 06:25:46 435.465 / 435.565
STRAND 1 03 Dec 06:11:19 06:16:22 61° 72° (ENE) 06:21:26 437.568
Cubesat XI-IV 03 Dec 06:12:50 06:18:07 58° 101° (E) 06:23:21 437.490
CINEMA 3 03 Dec 06:16:40 06:19:16 14° 88° (E) 06:21:49 145.822/145.860
NOAA 15 03 Dec 06:22:01 06:27:19 79° 103° (ESE) 06:32:35 137.62
RS-15 03 Dec 06:36:41 06:46:32 33° 103° (ESE) 06:56:43 29.354- 29.394
SO-50 03 Dec 06:42:49 06:46:12 21° 248° (WSW) 06:49:32 436.795
AIST 1 03 Dec 06:46:51 06:51:06 45° 78° (ENE) 06:55:20
Cosmos 2504 03 Dec 07:02:11 07:11:04 68° 79° (ENE) 07:19:28 435.465 / 435.565
LilacSat-2 03 Dec 07:06:26 07:09:36 25° 291° (WNW) 07:12:44 437.200
BEESAT 3 03 Dec 07:06:53 07:09:57 21° 316° (NW) 07:13:03 437.485
NOAA 18 03 Dec 07:08:33 07:14:06 74° 287° (WNW) 07:19:36 137.9125
GOMX 1 03 Dec 07:19:45 07:23:43 21° 296° (WNW) 07:27:42 467.674
CUTE 1.7 + AOD 2 03 Dec 07:20:47 07:24:41 36° 97° (E) 07:28:34 437.475
BEESAT 2 03 Dec 07:28:22 07:31:44 26° 314° (NW) 07:35:09 435.950
CUTE-I 03 Dec 07:28:25 07:33:05 32° 294° (WNW) 07:37:44 437.470
CANX-2 03 Dec 07:37:53 07:42:05 66° 101° (E) 07:46:16 2200.000
YUBILEINY 03 Dec 07:39:25 07:47:28 42° 274° (W) 07:55:32 435.215
UWE-3 03 Dec 07:46:32 07:49:32 18° 91° (E) 07:52:30 435.000/436.395/437.385
DOVE 4 03 Dec 07:47:06 07:51:17 24° 295° (WNW) 07:55:25 437.250
HO-68 03 Dec 07:47:12 07:54:23 66° 103° (ESE) 08:01:31 435.675
AIST 2 03 Dec 07:49:24 07:51:54 16° 110° (ESE) 07:54:25 435.215
CINEMA 3 03 Dec 07:52:02 07:56:54 64° 286° (WNW) 08:01:32 145.822/145.860
STRAND 1 03 Dec 07:52:39 07:55:57 17° 269° (W) 07:59:15 437.568
Cubesat XI-IV 03 Dec 07:53:53 07:57:45 21° 299° (WNW) 08:01:34 437.490
UNISAT 6 03 Dec 07:53:59 07:55:49 12° 60° (ENE) 07:57:38 437.425
AAUSAT CUBESAT 2 03 Dec 08:00:35 08:04:22 34° 97° (E) 08:08:10 437.432
NOAA 15 03 Dec 08:03:27 08:06:26 15° 301° (WNW) 08:09:25 137.62
Cosmos 2491 03 Dec 08:06:04 08:14:40 56° 284° (WNW) 08:23:15 435.465 / 435.565
SEEDS 03 Dec 08:10:20 08:14:32 89° 92° (E) 08:18:43 437.485
PRISM 03 Dec 08:19:10 08:23:13 87° 72° (ENE) 08:27:20 437.425
TIGRISAT 03 Dec 08:23:02 08:26:35 22° 65° (ENE) 08:30:08 435.000
ANTELSAT 03 Dec 08:23:29 08:27:09 23° 66° (ENE) 08:30:48 437.575/2403.000
AIST 1 03 Dec 08:25:35 08:28:17 16° 275° (W) 08:30:59
COMPASS 1 03 Dec 08:27:09 08:31:20 88° 277° (W) 08:35:29 437.405
CUBEBUG 2 03 Dec 08:32:22 08:36:52 90° 139° (SE) 08:41:10 437.445
ZACube-1 03 Dec 08:34:29 08:38:26 36° 97° (E) 08:42:17 437.345
FUNcube-1 03 Dec 08:44:03 08:48:07 42° 98° (E) 08:52:04 145.935
RS-15 03 Dec 08:46:03 08:57:53 76° 307° (NW) 09:10:18 29.354- 29.394
NOAA 18 03 Dec 08:51:51 08:53:48 12° 306° (NW) 08:55:44 137.9125
Cosmos 2504 03 Dec 08:56:39 09:03:39 28° 279° (W) 09:10:25 435.465 / 435.565
CUTE 1.7 + AOD 2 03 Dec 08:57:10 09:00:18 21° 294° (WNW) 09:03:25 437.475
HUMSAT D 03 Dec 08:58:22 08:58:53 10° 89° (E) 08:59:25 437.325/437.525
CANX-2 03 Dec 09:15:41 09:17:24 12° 298° (WNW) 09:19:07 2200.000
Oscar 11 03 Dec 09:18:49 09:23:08 81° 284° (WNW) 09:27:25 145.826/435.025
UWE-3 03 Dec 09:22:06 09:26:12 40° 289° (WNW) 09:30:11 435.000/436.395/437.385
AIST 2 03 Dec 09:25:55 09:29:57 52° 308° (NW) 09:34:02 435.215
UNISAT 6 03 Dec 09:27:08 09:31:51 84° 256° (WSW) 09:36:33 437.425
DELFI C3 03 Dec 09:27:47 09:31:36 45° 99° (E) 09:35:25 145.870
QB50P1 03 Dec 09:30:58 09:32:58 13° 62° (ENE) 09:34:58 145.935-145.965
HO-68 03 Dec 09:35:45 09:41:33 27° 302° (WNW) 09:47:20 435.675
AAUSAT CUBESAT 2 03 Dec 09:36:33 09:39:38 21° 293° (WNW) 09:42:43 437.432
DUCHIFAT 1 03 Dec 09:37:30 09:39:30 13° 62° (ENE) 09:41:30 145.980
JAS-2 03 Dec 09:49:34 09:55:37 41° 69° (ENE) 10:01:03 435.910
POPSAT HIP 1 03 Dec 09:50:48 09:53:58 20° 65° (ENE) 09:57:09 437.405
CUSAT 1 03 Dec 09:55:58 09:59:25 68° 280° (W) 10:02:17 437.405
TIGRISAT 03 Dec 09:58:31 10:02:59 43° 261° (W) 10:07:27 435.000
ANTELSAT 03 Dec 09:59:11 10:03:36 40° 262° (W) 10:08:01 437.575/2403.000
DANDE 03 Dec 10:08:43 10:13:29 41° 98° (E) 10:17:09 436.750
ZACube-1 03 Dec 10:11:18 10:14:29 21° 294° (WNW) 10:17:37 437.345
Cosmos 2491 03 Dec 10:11:21 10:13:50 11° 308° (NW) 10:16:20 435.465 / 435.565
CUBEBUG 2 03 Dec 10:12:28 10:12:41 10° 301° (WNW) 10:12:55 437.445
Cosmos 2499 03 Dec 10:12:40 10:18:36 20° 59° (ENE) 10:24:17 435.465 / 435.565
GONETS M04 03 Dec 10:20:05 10:26:10 20° 61° (ENE) 10:32:13
FUNcube-1 03 Dec 10:21:09 10:24:02 18° 295° (WNW) 10:26:52 145.935
HUMSAT D 03 Dec 10:30:53 10:34:56 65° 286° (WNW) 10:38:57 437.325/437.525
PCSat 03 Dec 10:35:11 10:36:57 12° 102° (ESE) 10:38:44 145.827
AO-85 03 Dec 10:45:17 10:48:59 34° 48° (NE) 10:52:32 145.980
BUGSAT 1 03 Dec 10:45:45 10:49:17 27° 68° (ENE) 10:52:52 437.445
NANOSAT C BR1 03 Dec 10:46:29 10:50:43 76° 76° (ENE) 10:55:01 145.865
QB50P2 03 Dec 10:49:09 10:53:26 88° 256° (WSW) 10:57:46 145.880/145.840
POLYITAN 1 03 Dec 10:49:46 10:54:04 88° 73° (ENE) 10:58:23 437.675
ESTCUBE 1 03 Dec 10:52:44 10:56:42 29° 96° (E) 11:00:38 437.505/2401.250
RS-15 03 Dec 11:02:20 11:12:50 33° 336° (NNW) 11:23:38 29.354- 29.394
DELFI C3 03 Dec 11:03:43 11:06:03 15° 295° (WNW) 11:08:24 145.870
QB50P1 03 Dec 11:03:57 11:08:11 65° 258° (WSW) 11:12:28 145.935-145.965
DUCHIFAT 1 03 Dec 11:10:26 11:14:39 64° 259° (W) 11:18:54 145.980
SPROUT 03 Dec 11:12:13 11:14:02 12° 90° (E) 11:15:52 437.525
AISAT 03 Dec 11:13:10 11:16:36 21° 94° (E) 11:20:01 437.250
POPSAT HIP 1 03 Dec 11:25:29 11:29:29 38° 262° (W) 11:33:31 437.405
JAS-2 03 Dec 11:34:46 11:40:43 34° 263° (W) 11:46:05 435.910
CUBEBUG 1 03 Dec 11:46:59 11:51:25 69° 101° (ESE) 11:55:50 437.445
50 SAT 03 Dec 11:49:27 11:52:48 38° 99° (E) 11:56:08 437.505
VELOX 1 03 Dec 11:49:39 11:53:59 48° 100° (E) 11:58:18 145.980
Gurwin Techsat 1B 03 Dec 11:50:35 11:54:18 20° 61° (ENE) 11:58:00 435.225
DANDE 03 Dec 11:53:11 11:56:06 16° 286° (WNW) 11:58:37 436.750
Cosmos 2499 03 Dec 12:04:24 12:13:11 86° 84° (E) 12:21:19 435.465 / 435.565
DX 1 03 Dec 12:13:29 12:17:44 46° 99° (E) 12:21:57 434.975-435.025
PCSat 03 Dec 12:14:04 12:19:28 86° 122° (ESE) 12:24:56 145.827
GONETS M04 03 Dec 12:15:31 12:24:16 90° 82° (E) 12:33:01
Oscar 19 03 Dec 12:17:49 12:22:50 61° 72° (ENE) 12:27:55 437.125/150
BUGSAT 1 03 Dec 12:20:57 12:24:34 28° 264° (W) 12:28:15 437.445
AO-85 03 Dec 12:26:06 12:29:10 22° 247° (WSW) 12:32:10 145.980
UKube-1 03 Dec 12:26:50 12:31:02 48° 100° (E) 12:35:13 .
ESTCUBE 1 03 Dec 12:29:35 12:33:25 28° 292° (WNW) 12:37:16 437.505/2401.250
ITAMSAT 1 03 Dec 12:42:20 12:44:57 14° 58° (ENE) 12:47:34 435.822/435.867
TISAT 1 03 Dec 12:44:05 12:47:17 21° 94° (E) 12:50:28 437.305
SPROUT 03 Dec 12:46:06 12:50:21 60° 287° (WNW) 12:54:34 437.525
AISAT 03 Dec 12:49:02 12:53:11 38° 290° (WNW) 12:57:19 437.250
AO-7 03 Dec 13:02:07 13:08:43 27° 53° (NE) 13:15:19 29.400- 29.500
RS-15 03 Dec 13:20:34 13:30:34 27° 11° (N) 13:40:33 29.354- 29.394
50 SAT 03 Dec 13:23:52 13:25:47 14° 295° (WNW) 13:27:42 437.505
CUBEBUG 1 03 Dec 13:25:02 13:27:08 13° 299° (WNW) 13:29:13 437.445
VELOX 1 03 Dec 13:27:03 13:30:04 18° 296° (WNW) 13:33:06 145.980
Gurwin Techsat 1B 03 Dec 13:28:30 13:33:45 61° 259° (W) 13:39:03 435.225
BEESAT 3 03 Dec 13:44:30 13:48:09 34° 49° (NE) 13:51:48 437.485
DX 1 03 Dec 13:50:34 13:53:34 18° 296° (WNW) 13:56:34 434.975-435.025
Oscar 19 03 Dec 13:59:19 14:02:34 17° 269° (W) 14:05:51 437.125/150
Cosmos 2499 03 Dec 13:59:20 14:05:02 20° 283° (WNW) 14:10:31 435.465 / 435.565
PCSat 03 Dec 13:59:49 14:03:36 19° 319° (NW) 14:07:23 145.827
UKube-1 03 Dec 14:03:51 14:06:42 17° 297° (WNW) 14:09:33 .
BEESAT 2 03 Dec 14:07:07 14:10:40 28° 47° (NE) 14:14:12 435.950
GONETS M04 03 Dec 14:14:22 14:19:49 19° 283° (WNW) 14:25:17
ITAMSAT 1 03 Dec 14:18:28 14:23:42 86° 257° (WSW) 14:28:57 435.822/435.867
TISAT 1 03 Dec 14:19:09 14:23:01 35° 290° (WNW) 14:26:51 437.305
AUBIESAT-1 03 Dec 14:20:15 14:24:34 38° 102° (ESE) 14:28:44 437.475
SWISSCUBE 03 Dec 14:21:22 14:25:59 49° 100° (E) 14:30:34 437.505
MOZHAYETS 4 03 Dec 14:23:44 14:24:57 11° 88° (E) 14:26:09
BEESAT 03 Dec 14:25:45 14:30:22 48° 100° (E) 14:34:57 436.000
M-CUBED/EXP-1 PRIME 03 Dec 14:29:39 14:34:19 59° 105° (ESE) 14:38:50 437.505
ITUPSAT 1 03 Dec 14:51:17 14:56:04 86° 104° (ESE) 15:00:50 437.325
AO-7 03 Dec 14:52:24 15:00:42 77° 253° (WSW) 15:09:05 29.400- 29.500
KKS-1 03 Dec 15:14:20 15:17:06 16° 92° (E) 15:19:51 437.445
BEESAT 3 03 Dec 15:22:25 15:25:38 24° 247° (WSW) 15:28:49 437.485
BRITE-PL 03 Dec 15:22:40 15:25:44 19° 64° (ENE) 15:28:55 437.365/2234.400
HORYU 2 03 Dec 15:27:46 15:31:02 20° 64° (ENE) 15:34:19 437.375
STARS 03 Dec 15:30:31 15:31:07 10° 89° (E) 15:31:42 437.465
